UFO 2 Rocket1 - Orbit

View from above orbital plane
View from above orbital plane
View from above satellite
View from above satellite

Ground track
Ground track

The orbit data is extracted from the following two-line orbital elements,

1 22788U 93056B   13145.10897933  .00086232 -36108-5  10243-2 0  8192
2 22788 026.8892 041.0878 2003796 206.6250 274.1354 11.54668239586246
Epoch (UTC): 25 May 2013 02:36:55
Eccentricity: 0.2003796
inclination: 26.8892°
perigee height: 233 km
apogee height: 3547 km
right ascension of ascending node: 41.0878°
argument of perigee: 206.6250°
revolutions per day: 11.54668239
mean anomaly at epoch: 274.1354°
orbit number at epoch: 58624

The dashed part of the orbit path shows where the satellite is in the earth's shadow,  

Developed and maintained by Chris Peat, Heavens-Above GmbH. Please read the updated FAQ before sending e-mail. Imprint. DLR